7L2IWN-13 Weather Reports


time (UTC)temp
F
wind
direction
speed
knots
gust
knots
rain 1hr
in
rain 24hr
in
rain mn
in
humidity
%
barometer
mb
20260831001203 74 222 0.9 1.7 0.00 0.00 0.00 95 1013.5
20260831000004 75 357 0.0 0.0 0.00 0.00 0.00 94 1013.5
20260830234804 74 288 0.9 1.7 0.00 0.00 0.00 96 1013.5
20260830233605 73 138 1.7 2.6 0.00 0.00 0.00 98 1013.1
20260830232404 73 125 0.9 1.7 0.00 0.00 0.00 99 1013.3
20260830231204 72 53 0.0 0.0 0.00 0.00 0.00 99 1013.6
20260830230003 72 39 0.0 0.9 0.00 0.00 0.00 99 1013.2
20260830224803 72 29 0.9 2.6 0.00 0.00 0.00 99 1013.0
20260830223604 72 32 1.7 4.3 0.00 0.00 0.00 99 1013.2
20260830222404 72 33 0.9 2.6 0.00 0.00 0.00 99 1013.0
20260830221205 72 33 1.7 2.6 0.00 0.00 0.00 99 1013.2
20260830220004 72 189 0.0 0.0 0.00 0.00 0.00 99 1012.8
20260830214804 71 189 0.0 0.9 0.00 0.00 0.00 99 1012.7
20260830213604 71 189 0.9 1.7 0.00 0.00 0.00 99 1012.6
20260830212404 71 189 0.0 0.0 0.00 0.00 0.00 99 1012.8
20260830211203 70 189 0.0 0.0 0.00 0.00 0.00 99 1012.5
20260830210003 69 188 0.9 1.7 0.00 0.00 0.00 99 1012.6
20260830204804 69 183 0.9 0.9 0.00 0.00 0.00 99 1012.5
20260830203603 69 168 0.9 0.9 0.00 0.00 0.00 99 1012.2
20260830202403 69 168 0.0 0.0 0.00 0.00 0.00 99 1012.2
20260830201202 69 158 0.9 1.7 0.00 0.00 0.00 99 1012.0
20260830200004 69 98 0.0 0.0 0.00 0.00 0.00 99 1011.9
20260830194803 69 130 0.0 1.7 0.00 0.00 0.00 99 1011.5
20260830193604 69 35 0.0 0.0 0.00 0.00 0.00 99 1011.5
20260830192404 70 39 0.0 0.0 0.00 0.00 0.00 99 1011.3
20260830191203 69 137 0.0 0.0 0.00 0.00 0.00 99 1011.1
20260830190004 70 128 0.0 0.0 0.00 0.00 0.00 99 1011.3
20260830184804 70 299 0.0 0.0 0.00 0.00 0.00 99 1011.1
20260830183603 70 299 0.0 0.0 0.00 0.00 0.00 99 1010.9
20260830182404 70 299 0.0 0.9 0.00 0.00 0.00 99 1010.7
20260830181203 71 299 0.9 1.7 0.00 0.00 0.00 99 1011.1
20260830180003 70 299 0.0 0.0 0.00 0.00 0.00 99 1011.4
20260830174802 71 299 0.0 0.9 0.00 0.00 0.00 99 1011.3
20260830173603 71 299 0.9 0.9 0.00 0.00 0.00 99 1011.0
20260830172403 71 299 0.0 0.0 0.00 0.00 0.00 99 1010.9
20260830171204 71 299 0.0 0.9 0.00 0.00 0.00 99 1010.8
20260830170004 71 299 0.9 0.9 0.00 0.00 0.00 99 1010.9
20260830164804 71 299 0.0 0.9 0.00 0.00 0.00 99 1011.0
20260830163604 71 300 1.7 2.6 0.00 0.00 0.00 99 1010.9
20260830162403 71 302 1.7 1.7 0.00 0.00 0.00 99 1011.0
20260830161203 70 302 1.7 2.6 0.00 0.00 0.00 99 1010.7
20260830160003 71 304 0.9 1.7 0.00 0.00 0.00 99 1010.7
20260830154803 71 304 1.7 1.7 0.00 0.00 0.00 99 1010.8
20260830153604 71 306 0.9 1.7 0.00 0.00 0.00 99 1010.9
20260830152403 71 307 1.7 1.7 0.00 0.00 0.00 99 1011.0
20260830151203 71 304 1.7 1.7 0.00 0.00 0.00 99 1010.8
20260830150004 71 307 0.9 1.7 0.00 0.00 0.00 99 1010.9
20260830144803 71 310 0.0 0.0 0.00 0.00 0.00 99 1011.1
20260830143602 71 311 0.9 1.7 0.00 0.01 0.00 99 1011.2
20260830142403 71 312 0.9 1.7 0.00 0.01 0.00 99 1011.1
20260830141204 71 313 0.0 0.9 0.00 0.01 0.00 99 1010.9
20260830140003 71 313 0.9 0.9 0.00 0.01 0.00 99 1010.9
20260830134803 71 313 0.0 0.9 0.00 0.01 0.00 99 1010.9
20260830133604 71 313 0.9 1.7 0.00 0.01 0.00 99 1010.9
20260830132403 71 316 0.9 1.7 0.00 0.01 0.00 99 1010.7
20260830131204 71 316 0.9 0.9 0.00 0.01 0.00 99 1010.8
20260830130003 71 316 0.9 1.7 0.00 0.01 0.00 99 1010.6
20260830124804 71 316 0.0 0.0 0.00 0.01 0.00 99 1010.7
20260830123602 71 320 0.9 1.7 0.00 0.01 0.00 99 1011.2
20260830122404 71 341 0.0 0.0 0.00 0.01 0.00 99 1011.0
20260830121204 72 49 0.0 0.0 0.00 0.01 0.00 99 1011.0
20260830120003 72 49 0.0 0.0 0.00 0.01 0.00 99 1010.7
20260830114804 71 107 0.0 0.0 0.00 0.01 0.00 99 1010.6
20260830113603 71 49 0.0 0.0 0.00 0.01 0.00 99 1010.5
20260830112402 71 48 0.9 0.9 0.00 0.01 0.00 99 1010.3
20260830111204 72 49 0.0 0.0 0.00 0.01 0.00 99 1010.1
20260830110002 72 70 0.0 0.0 0.00 0.01 0.00 99 1010.2
20260830104803 72 87 0.0 0.0 0.00 0.01 0.00 99 1009.8
20260830103604 72 66 0.9 0.9 0.00 0.01 0.00 99 1009.8
20260830102402 72 64 0.0 0.0 0.00 0.01 0.00 99 1009.6
20260830101203 72 119 0.0 0.0 0.00 0.01 0.00 99 1009.2
20260830100003 72 118 0.9 1.7 0.00 0.01 0.00 99 1009.3
20260830094803 72 79 0.0 0.0 0.00 0.01 0.00 99 1009.5
20260830093603 72 44 2.6 2.6 0.00 0.01 0.00 98 1009.1
20260830092404 72 46 1.7 4.3 0.00 0.01 0.00 98 1009.4
20260830091202 72 33 2.6 4.3 0.00 0.01 0.00 97 1009.3
20260830090004 73 52 1.7 5.2 0.00 0.01 0.00 97 1009.2
20260830084803 73 41 1.7 2.6 0.00 0.01 0.00 97 1009.1
20260830083603 73 52 1.7 2.6 0.00 0.02 0.00 96 1009.1
20260830082404 74 39 5.2 7.0 0.00 0.02 0.00 95 1008.9
20260830081203 74 147 0.0 0.0 0.00 0.02 0.00 96 1008.7
20260830080002 75 144 0.9 1.7 0.00 0.02 0.00 95 1008.7
20260830074802 75 128 0.0 0.0 0.00 0.02 0.00 92 1008.5
20260830073602 75 17 0.0 0.0 0.00 0.02 0.00 91 1008.6
20260830072403 76 88 0.9 1.7 0.00 0.02 0.00 90 1008.2
20260830071203 76 54 0.0 0.0 0.00 0.02 0.00 90 1008.2
20260830070004 75 343 1.7 2.6 0.00 0.02 0.00 91 1008.3
20260830064802 75 332 0.9 1.7 0.00 0.02 0.00 91 1008.2
20260830063604 75 17 0.9 0.9 0.00 0.02 0.00 90 1008.3
20260830062404 76 37 0.0 0.9 0.00 0.02 0.00 90 1008.2
20260830061203 76 70 0.9 0.9 0.00 0.02 0.00 90 1008.3
20260830060003 75 28 1.7 4.3 0.00 0.02 0.00 91 1008.3
20260830054802 74 30 1.7 2.6 0.00 0.02 0.00 92 1008.3
20260830053603 74 46 0.9 2.6 0.00 0.02 0.00 93 1008.6
20260830052402 73 29 4.3 5.2 0.00 0.02 0.00 94 1008.7
20260830051203 74 40 4.3 6.1 0.00 0.03 0.00 93 1009.0
20260830050003 74 41 2.6 5.2 0.00 0.03 0.00 93 1008.8
20260830044803 74 48 2.6 5.2 0.00 0.03 0.00 92 1008.9
20260830043602 75 333 0.0 0.0 0.00 0.03 0.00 90 1009.0
20260830042403 75 156 0.9 2.6 0.00 0.03 0.00 91 1009.0
20260830041202 74 299 0.0 1.7 0.00 0.03 0.00 92 1009.1
20260830040002 75 7 1.7 4.3 0.00 0.03 0.00 89 1008.6
20260830034803 75 11 1.7 5.2 0.00 0.03 0.00 90 1007.8
20260830033603 75 68 1.7 4.3 0.00 0.03 0.00 89 1008.6
20260830032403 74 80 1.7 2.6 0.00 0.03 0.00 90 1008.9
20260830031202 73 6 0.0 0.9 0.00 0.03 0.00 92 1009.2
20260830030003 74 259 0.0 1.7 0.00 0.03 0.00 90 1009.3
20260830024803 73 267 0.9 1.7 0.00 0.03 0.00 91 1009.5
20260830023603 74 146 1.7 2.6 0.00 0.03 0.00 91 1009.9
20260830022402 72 342 0.9 1.7 0.00 0.04 0.00 95 1010.3
20260830021203 73 353 0.9 2.6 0.00 0.04 0.00 94 1010.0
20260830020002 72 35 0.9 2.6 0.00 0.04 0.00 95 1010.1
20260830014803 72 38 0.0 0.9 0.00 0.05 0.00 94 1009.9
20260830013603 72 55 0.9 1.7 0.00 0.05 0.00 95 1009.8
20260830012403 71 39 1.7 2.6 0.00 0.05 0.00 94 1009.6
20260830011202 72 55 0.9 2.6 0.00 0.05 0.00 95 1009.8
20260830010003 67 82 0.0 0.9 0.00 0.05 0.00 99 1009.9
20260830004802 67 82 0.0 0.9 0.00 0.05 0.00 99 1010.3
20260830003603 67 82 0.0 0.9 0.00 0.05 0.00 99 1009.9
20260830002404 67 82 0.0 0.9 0.00 0.05 0.00 99 1010.3